Location: Dürabuch
(48.2640°N, 11.2185°E)
Time: 03:52:45
(UTC+00:00)

MOZ.5/SAFIR/RUBIN 5/SL-8 - Pass Details

Date: 23 May 2024
Orbit: 671 x 700 km, 98.3° (Epoch: 13 June)

Event Time Altitude Azimuth Distance (km) Brightness Sun altitude
Exits shadow 01:18:26 26° 210° (SSW) 1,359 4.7 -15.5°
Maximum altitude 01:20:33 41° 262° (W) 1,010 4.3 -15.3°
Drops below altitude 10° 01:25:02 10° 333° (NNW) 2,159 6.7 -14.9°
Sets 01:27:24 0° 340° (NNW) 3,076 7.7 -14.7°
